Flag for United Kingdom Weather past 2 weeks in Milton Keynes, England, United Kingdom

Now
61 °F

Passing clouds.


Feels Like: 61 °F
Forecast: 44 / 53 °F
Wind: 13 mph from West

Location: Cranfield

Current Time: May 28, 2015 at 7:30:46 PM

Latest Report: May 28, 2015 at 5:50 PM


Visibility: N/A

Pressure: 29.92 "Hg

Humidity: 42%

Dew point: 37 °F

Location of Milton KeynesLocation

Historic Weather in Milton Keynes — Graph

°F

Milton Keynes temperature yesterday

Maximum temperature yesterday: 63 °F (at 4:20 PM)
Minimum temperature yesterday: 50 °F (at 7:50 AM)
Average temperature yesterday: 58 °F

Past Weeks' High & Low Weather Summary

 TemperatureHumidityPressure
High66 °F (May 21, 5:20 PM)100% (May 14, 4:20 PM)30.30 "Hg (May 14, 4:20 PM)
Low46 °F (May 14, 7:50 AM)42% (May 28, 4:20 PM)29.50 "Hg (May 18, 12:50 PM)
Average55 °F69%30.06 "Hg
* Reported May 13 5:20 PM — May 28 5:50 PM, Milton Keynes, Weather by CustomWeather, © 2015

Note: Actual official high and low records may vary slightly from our data, if they occured in-between our weather recording intervals... More about our weather records

Advertising

Milton Keynes weather history for previous 24 hours

 ConditionsComfort  
Time TempWeatherWind HumidityBarometerVisibility
5:50 PM
Thu, May 28
61 °FPassing clouds.13 mph42%29.92 "HgN/A
5:20 PM59 °FPassing clouds.12 mph42%29.92 "HgN/A
4:50 PM59 °FPassing clouds.12 mph45%29.92 "HgN/A
4:20 PM59 °FSunny.13 mph42%29.92 "Hg10 mi
3:50 PM59 °FPassing clouds.12 mph45%29.95 "HgN/A
2:20 PM59 °FPassing clouds.13 mph48%29.95 "HgN/A
1:50 PM59 °FPassing clouds.14 mph45%29.95 "HgN/A
1:20 PM57 °FScattered clouds.15 mph55%29.95 "HgN/A
12:50 PM61 °FScattered clouds.15 mph45%29.95 "HgN/A
12:20 PM57 °FPassing clouds.10 mph55%29.95 "HgN/A
11:50 AM57 °FPassing clouds.14 mph55%29.95 "HgN/A
11:20 AM55 °FPassing clouds.14 mph59%29.95 "HgN/A
10:50 AM57 °FScattered clouds.14 mph59%29.95 "HgN/A
10:20 AM57 °FScattered clouds.15 mph59%29.95 "HgN/A
9:50 AM54 °FScattered clouds.10 mph67%29.95 "HgN/A
9:20 AM54 °FScattered clouds.13 mph63%29.95 "HgN/A
8:50 AM54 °FScattered clouds.16 mph63%29.95 "HgN/A
8:20 AM54 °FScattered clouds.13 mph67%29.95 "HgN/A
7:50 AM52 °FPassing clouds.12 mph77%29.92 "HgN/A
Weather by CustomWeather, © 2015

See weather overviewHow to use our weather pages